Ever Legion — 9V9725 — position and weather

sailwx.info

Track history (hours):
 
Tides and Currents Weather Stations Pressure Air Temp Water Temp Dewpoint Dewpoint Depression Visibility Wind Speed Wind Dir Waves Ship Positions

Ever Legion

Last reported at 2017-Nov-21 00:00 UTC. Time now 2017-Nov-21 04:44 UTC.
Position N 34°42' W 075°24'.

Length 335 m; draft 10.7 m.

Type: Cargo ship. MMSI: 566970000.

Wind from 350 at 18 knots

Barometer 1025.0 mb
Air temperature 13.5 ° C
Visibility: greater than 10.8 NM
Dewpoint 13.5 ° C
Water temperature 25.7 ° C

Date/timePositionNaut miles runAvg speedWind from/ knotsBaromVisibWave heightAir tempDewpointWater temp
2017-Nov-21 00:00N 34°42' W 075°24'16113.4 350 / 181025.010.8 13.513.525.7
2017-Nov-20 12:00N 33°00' W 077°54'114 4.1 010 / 241021.710.8 12.511.625.2
2017-Nov-19 08:27N 32°09' W 079°55'919.1
2017-Nov-19 07:59N 32°05' W 080°04'919.1
2017-Nov-19 07:30N 32°00' W 080°14'917.4
2017-Nov-19 07:00N 31°56' W 080°23'5 9.5
2017-Nov-19 06:30N 31°56' W 080°29'5 9.4
2017-Nov-19 06:00N 31°56' W 080°34'5 9.5
2017-Nov-19 05:30N 31°56' W 080°40'5 9.4
2017-Nov-19 05:00N 31°59' W 080°45'714.0
2017-Nov-19 04:30N 32°02' W 080°52'611.9
2017-Nov-19 04:00N 32°04' W 080°58'3 6.1
2017-Nov-19 03:30N 32°05' W 081°01'3 6.9
2017-Nov-19 03:00N 32°05' W 081°06'2 4.3
2017-Nov-19 02:30N 32°07' W 081°07'2 3.4
2017-Nov-19 02:00N 32°08' W 081°08'0 0.3
2017-Nov-19 01:30N 32°08' W 081°08'0 0.0
2017-Nov-19 01:00N 32°08' W 081°08'0 0.0
2017-Nov-19 00:29N 32°08' W 081°08'0 0.0
2017-Nov-19 00:00N 32°08' W 081°08'0 0.0
2017-Nov-18 23:30N 32°08' W 081°08'0 0.0
2017-Nov-18 23:00N 32°08' W 081°08'0 0.0
2017-Nov-18 22:30N 32°08' W 081°08'0 0.0
2017-Nov-18 22:00N 32°08' W 081°08'0 0.0
2017-Nov-18 21:24N 32°08' W 081°08'0 0.0
2017-Nov-18 21:00N 32°08' W 081°08'0 0.0
2017-Nov-18 20:30N 32°08' W 081°08'0 0.0
2017-Nov-18 20:00N 32°08' W 081°08'0 0.0
2017-Nov-18 19:30N 32°08' W 081°08'0 0.0
2017-Nov-18 19:00N 32°08' W 081°08'0 0.0
2017-Nov-18 18:30N 32°08' W 081°08'0 0.0
2017-Nov-18 18:00N 32°08' W 081°08'0 0.0
2017-Nov-18 17:24N 32°08' W 081°08'0 0.0
2017-Nov-18 16:54N 32°08' W 081°08'0 0.0
2017-Nov-18 16:30N 32°08' W 081°08'0 0.0
2017-Nov-18 15:54N 32°08' W 081°08'0 0.0
2017-Nov-18 15:30N 32°08' W 081°08'0 0.0
2017-Nov-18 15:00N 32°08' W 081°08'0 0.0
2017-Nov-18 14:30N 32°08' W 081°08'0 0.0
2017-Nov-18 14:00N 32°08' W 081°08'0 0.0
2017-Nov-18 13:30N 32°08' W 081°08'0 0.0
2017-Nov-18 12:48N 32°08' W 081°08'0 0.0
2017-Nov-18 12:30N 32°08' W 081°08'0 0.0
2017-Nov-18 12:00N 32°08' W 081°08'0 0.0
2017-Nov-18 11:24N 32°08' W 081°08'0 0.0
2017-Nov-18 10:54N 32°08' W 081°08'0 0.0
2017-Nov-18 10:30N 32°08' W 081°08'0 0.0
2017-Nov-18 10:00N 32°08' W 081°08'0 0.0
2017-Nov-18 09:24N 32°08' W 081°08'0 0.0
2017-Nov-18 09:00N 32°08' W 081°08'0 0.0
2017-Nov-18 08:30N 32°08' W 081°08'0 0.0
2017-Nov-18 08:00N 32°08' W 081°08'0 0.0
2017-Nov-18 07:30N 32°08' W 081°08'0 0.0
2017-Nov-18 07:00N 32°08' W 081°08'0 0.0
2017-Nov-18 06:30N 32°08' W 081°08'0 0.0
2017-Nov-18 05:48N 32°08' W 081°08'0 0.0
2017-Nov-18 05:12N 32°08' W 081°08'0 0.0
2017-Nov-18 04:54N 32°08' W 081°08'0 0.0
2017-Nov-18 04:30N 32°08' W 081°08'0 0.0
2017-Nov-18 04:00N 32°08' W 081°08'0 0.0
2017-Nov-18 03:24N 32°08' W 081°08'0 0.0
2017-Nov-18 02:42N 32°08' W 081°08'0 0.0
2017-Nov-18 02:18N 32°08' W 081°08'0 0.0
2017-Nov-18 01:54N 32°08' W 081°08'0 0.0
2017-Nov-18 01:30N 32°08' W 081°08'0 0.0
2017-Nov-18 01:00N 32°08' W 081°08'0 0.0
2017-Nov-18 00:24N 32°08' W 081°08'0 0.0
2017-Nov-18 00:00N 32°08' W 081°08'0 0.0
2017-Nov-17 23:30N 32°08' W 081°08'0 0.0
2017-Nov-17 22:54N 32°08' W 081°08'0 0.0
2017-Nov-17 22:24N 32°08' W 081°08'0 0.0
2017-Nov-17 22:00N 32°08' W 081°08'0 0.0
2017-Nov-17 21:30N 32°08' W 081°08'0 0.0
2017-Nov-17 21:00N 32°08' W 081°08'0 0.0
2017-Nov-17 20:30N 32°08' W 081°08'0 0.0
2017-Nov-17 20:00N 32°08' W 081°08'0 0.0
2017-Nov-17 19:30N 32°08' W 081°08'0 0.0
2017-Nov-17 18:54N 32°08' W 081°08'0 0.0
2017-Nov-17 18:30N 32°08' W 081°08'0 0.0
2017-Nov-17 18:00N 32°08' W 081°08'0 0.0
2017-Nov-17 17:24N 32°08' W 081°08'0 0.0
2017-Nov-17 17:00N 32°08' W 081°08'0 0.0
2017-Nov-17 16:30N 32°08' W 081°08'0 0.0
2017-Nov-17 16:00N 32°08' W 081°08'0 0.0
2017-Nov-17 15:30N 32°08' W 081°08'0 0.0
2017-Nov-17 14:54N 32°08' W 081°08'0 0.0
2017-Nov-17 14:30N 32°08' W 081°08'0 0.0
2017-Nov-17 13:54N 32°08' W 081°08'0 0.0
2017-Nov-17 13:30N 32°08' W 081°08'0 0.0
2017-Nov-17 13:00N 32°08' W 081°08'0 0.0
2017-Nov-17 12:30N 32°08' W 081°08'0 0.0
2017-Nov-17 12:00N 32°08' W 081°08'0 0.0
2017-Nov-17 11:30N 32°08' W 081°08'0 0.0
2017-Nov-17 10:54N 32°08' W 081°08'0 0.0
2017-Nov-17 10:28N 32°08' W 081°08'0 0.2
2017-Nov-17 10:00N 32°08' W 081°08'2 3.5
2017-Nov-17 09:30N 32°06' W 081°07'3 5.7
2017-Nov-17 09:00N 32°05' W 081°04'3 6.5
2017-Nov-17 08:30N 32°06' W 081°01'612.0
2017-Nov-17 08:00N 32°02' W 080°55'612.3
2017-Nov-17 07:30N 32°01' W 080°48'713.8
2017-Nov-17 07:00N 31°57' W 080°41'4 8.7
2017-Nov-17 06:30N 31°56' W 080°36'5 9.3
2017-Nov-17 06:00N 31°56' W 080°31'5 9.5
2017-Nov-17 05:30N 31°56' W 080°25'4 9.1
2017-Nov-17 05:00N 31°54' W 080°21'611.6
2017-Nov-17 04:30N 31°50' W 080°15'67416.6
2017-Nov-15 12:00N 21°48' W 074°36'36515.2 360 / 51012.0 5.4 24.524.528.5
2017-Nov-14 12:00N 15°54' W 076°12'   140 / 201012.510.8 29.023.529.8
2017-Nov-11 12:00N 06°54' W 080°48'22819.0 280 / 161012.5 2.2 25.023.528.8
2017-Nov-11 00:00N 08°12' W 084°24'   220 / 51012.5 5.4 26.523.628.3
Track history (hours):
 
Tides and Currents Weather Stations Pressure Air Temp Water Temp Dewpoint Dewpoint Depression Visibility Wind Speed Wind Dir Waves Ship Positions

Ever Legion

Last reported at 2017-Nov-21 00:00 UTC. Time now 2017-Nov-21 04:44 UTC.
Position N 34°42' W 075°24'.

Length 335 m; draft 10.7 m.

Type: Cargo ship. MMSI: 566970000.

Wind from 350 at 18 knots

Barometer 1025.0 mb
Air temperature 13.5 ° C
Visibility: greater than 10.8 NM
Dewpoint 13.5 ° C
Water temperature 25.7 ° C

Date/timePositionNaut miles runAvg speedWind from/ knotsBaromVisibWave heightAir tempDewpointWater temp
2017-Nov-21 00:00N 34°42' W 075°24'16113.4 350 / 181025.010.8 13.513.525.7
2017-Nov-20 12:00N 33°00' W 077°54'114 4.1 010 / 241021.710.8 12.511.625.2
2017-Nov-19 08:27N 32°09' W 079°55'919.1
2017-Nov-19 07:59N 32°05' W 080°04'919.1
2017-Nov-19 07:30N 32°00' W 080°14'917.4
2017-Nov-19 07:00N 31°56' W 080°23'5 9.5
2017-Nov-19 06:30N 31°56' W 080°29'5 9.4
2017-Nov-19 06:00N 31°56' W 080°34'5 9.5
2017-Nov-19 05:30N 31°56' W 080°40'5 9.4
2017-Nov-19 05:00N 31°59' W 080°45'714.0
2017-Nov-19 04:30N 32°02' W 080°52'611.9
2017-Nov-19 04:00N 32°04' W 080°58'3 6.1
2017-Nov-19 03:30N 32°05' W 081°01'3 6.9
2017-Nov-19 03:00N 32°05' W 081°06'2 4.3
2017-Nov-19 02:30N 32°07' W 081°07'2 3.4
2017-Nov-19 02:00N 32°08' W 081°08'0 0.3
2017-Nov-19 01:30N 32°08' W 081°08'0 0.0
2017-Nov-19 01:00N 32°08' W 081°08'0 0.0
2017-Nov-19 00:29N 32°08' W 081°08'0 0.0
2017-Nov-19 00:00N 32°08' W 081°08'0 0.0
2017-Nov-18 23:30N 32°08' W 081°08'0 0.0
2017-Nov-18 23:00N 32°08' W 081°08'0 0.0
2017-Nov-18 22:30N 32°08' W 081°08'0 0.0
2017-Nov-18 22:00N 32°08' W 081°08'0 0.0
2017-Nov-18 21:24N 32°08' W 081°08'0 0.0
2017-Nov-18 21:00N 32°08' W 081°08'0 0.0
2017-Nov-18 20:30N 32°08' W 081°08'0 0.0
2017-Nov-18 20:00N 32°08' W 081°08'0 0.0
2017-Nov-18 19:30N 32°08' W 081°08'0 0.0
2017-Nov-18 19:00N 32°08' W 081°08'0 0.0
2017-Nov-18 18:30N 32°08' W 081°08'0 0.0
2017-Nov-18 18:00N 32°08' W 081°08'0 0.0
2017-Nov-18 17:24N 32°08' W 081°08'0 0.0
2017-Nov-18 16:54N 32°08' W 081°08'0 0.0
2017-Nov-18 16:30N 32°08' W 081°08'0 0.0
2017-Nov-18 15:54N 32°08' W 081°08'0 0.0
2017-Nov-18 15:30N 32°08' W 081°08'0 0.0
2017-Nov-18 15:00N 32°08' W 081°08'0 0.0
2017-Nov-18 14:30N 32°08' W 081°08'0 0.0
2017-Nov-18 14:00N 32°08' W 081°08'0 0.0
2017-Nov-18 13:30N 32°08' W 081°08'0 0.0
2017-Nov-18 12:48N 32°08' W 081°08'0 0.0
2017-Nov-18 12:30N 32°08' W 081°08'0 0.0
2017-Nov-18 12:00N 32°08' W 081°08'0 0.0
2017-Nov-18 11:24N 32°08' W 081°08'0 0.0
2017-Nov-18 10:54N 32°08' W 081°08'0 0.0
2017-Nov-18 10:30N 32°08' W 081°08'0 0.0
2017-Nov-18 10:00N 32°08' W 081°08'0 0.0
2017-Nov-18 09:24N 32°08' W 081°08'0 0.0
2017-Nov-18 09:00N 32°08' W 081°08'0 0.0
2017-Nov-18 08:30N 32°08' W 081°08'0 0.0
2017-Nov-18 08:00N 32°08' W 081°08'0 0.0
2017-Nov-18 07:30N 32°08' W 081°08'0 0.0
2017-Nov-18 07:00N 32°08' W 081°08'0 0.0
2017-Nov-18 06:30N 32°08' W 081°08'0 0.0
2017-Nov-18 05:48N 32°08' W 081°08'0 0.0
2017-Nov-18 05:12N 32°08' W 081°08'0 0.0
2017-Nov-18 04:54N 32°08' W 081°08'0 0.0
2017-Nov-18 04:30N 32°08' W 081°08'0 0.0
2017-Nov-18 04:00N 32°08' W 081°08'0 0.0
2017-Nov-18 03:24N 32°08' W 081°08'0 0.0
2017-Nov-18 02:42N 32°08' W 081°08'0 0.0
2017-Nov-18 02:18N 32°08' W 081°08'0 0.0
2017-Nov-18 01:54N 32°08' W 081°08'0 0.0
2017-Nov-18 01:30N 32°08' W 081°08'0 0.0
2017-Nov-18 01:00N 32°08' W 081°08'0 0.0
2017-Nov-18 00:24N 32°08' W 081°08'0 0.0
2017-Nov-18 00:00N 32°08' W 081°08'0 0.0
2017-Nov-17 23:30N 32°08' W 081°08'0 0.0
2017-Nov-17 22:54N 32°08' W 081°08'0 0.0
2017-Nov-17 22:24N 32°08' W 081°08'0 0.0
2017-Nov-17 22:00N 32°08' W 081°08'0 0.0
2017-Nov-17 21:30N 32°08' W 081°08'0 0.0
2017-Nov-17 21:00N 32°08' W 081°08'0 0.0
2017-Nov-17 20:30N 32°08' W 081°08'0 0.0
2017-Nov-17 20:00N 32°08' W 081°08'0 0.0
2017-Nov-17 19:30N 32°08' W 081°08'0 0.0
2017-Nov-17 18:54N 32°08' W 081°08'0 0.0
2017-Nov-17 18:30N 32°08' W 081°08'0 0.0
2017-Nov-17 18:00N 32°08' W 081°08'0 0.0
2017-Nov-17 17:24N 32°08' W 081°08'0 0.0
2017-Nov-17 17:00N 32°08' W 081°08'0 0.0
2017-Nov-17 16:30N 32°08' W 081°08'0 0.0
2017-Nov-17 16:00N 32°08' W 081°08'0 0.0
2017-Nov-17 15:30N 32°08' W 081°08'0 0.0
2017-Nov-17 14:54N 32°08' W 081°08'0 0.0
2017-Nov-17 14:30N 32°08' W 081°08'0 0.0
2017-Nov-17 13:54N 32°08' W 081°08'0 0.0
2017-Nov-17 13:30N 32°08' W 081°08'0 0.0
2017-Nov-17 13:00N 32°08' W 081°08'0 0.0
2017-Nov-17 12:30N 32°08' W 081°08'0 0.0
2017-Nov-17 12:00N 32°08' W 081°08'0 0.0
2017-Nov-17 11:30N 32°08' W 081°08'0 0.0
2017-Nov-17 10:54N 32°08' W 081°08'0 0.0
2017-Nov-17 10:28N 32°08' W 081°08'0 0.2
2017-Nov-17 10:00N 32°08' W 081°08'2 3.5
2017-Nov-17 09:30N 32°06' W 081°07'3 5.7
2017-Nov-17 09:00N 32°05' W 081°04'3 6.5
2017-Nov-17 08:30N 32°06' W 081°01'612.0
2017-Nov-17 08:00N 32°02' W 080°55'612.3
2017-Nov-17 07:30N 32°01' W 080°48'713.8
2017-Nov-17 07:00N 31°57' W 080°41'4 8.7
2017-Nov-17 06:30N 31°56' W 080°36'5 9.3
2017-Nov-17 06:00N 31°56' W 080°31'5 9.5
2017-Nov-17 05:30N 31°56' W 080°25'4 9.1
2017-Nov-17 05:00N 31°54' W 080°21'611.6
2017-Nov-17 04:30N 31°50' W 080°15'67416.6
2017-Nov-15 12:00N 21°48' W 074°36'36515.2 360 / 51012.0 5.4 24.524.528.5
2017-Nov-14 12:00N 15°54' W 076°12'   140 / 201012.510.8 29.023.529.8
2017-Nov-11 12:00N 06°54' W 080°48'22819.0 280 / 161012.5 2.2 25.023.528.8
2017-Nov-11 00:00N 08°12' W 084°24'   220 / 51012.5 5.4 26.523.628.3

Dump ship's entire track history